Weather History for Half Moon Bay, CA

Change the Weather History Date:

Friday, June 14, 2013

  Actual Average Record
Temperature  
Mean Temperature 50 °F -  
Max Temperature 59 °F 63 °F 64 °F (2011)
Min Temperature 41 °F 49 °F 41 °F (2013)
Degree Days  
Heating Degree Days 15    
Moisture  
Dew Point 47 °F    
Average Humidity 82    
Maximum Humidity 94    
Minimum Humidity 72    
Precipitation  
Precipitation 0.00 in - - ()
Sea Level Pressure  
Sea Level Pressure 29.96 in    
Wind  
Wind Speed 5 mph (NNW)    
Max Wind Speed 20 mph    
Max Gust Speed 23 mph    
Visibility 5 miles    
Events      
Averages and records for this station are not official NWS values.
T = Trace of Precipitation, MM = Missing Value Source: NWS Daily Summary

Daily Weather History Graph

Daily Weather History Graph

Search for Another Location

Airport:

Trip Planner

Search our weather history database for the weather conditions in past years. The results will help you decide how hot, cold, wet, or windy it might be!

Date:

Astronomy

Jun. 14, 2013 Rise Set
Actual Time 5:48 AM PDT 8:32 PM PDT
Civil Twilight 5:17 AM PDT 9:03 PM PDT
Nautical Twilight 4:38 AM PDT 9:42 PM PDT
Astronomical Twilight 3:54 AM PDT 10:26 PM PDT
Moon 11:22 AM PDT (6/14) No Moon Set
Length of Visible Light 15h 46m
Length of Day
14h 44m
Waxing Crescent, 31% of the Moon is Illuminated
Jun 14
Waxing Crescent
Jun 16
First Quarter
Jun 23
Full
Jun 29
Last Quarter
Jul 8
New

Hourly Weather History & Observations

Time (PDT) Temp. Windchill Dew Point Humidity Pressure Visibility Wind Dir Wind Speed Gust Speed Precip Events Conditions
12:15 AM 46.4 °F - 44.6 °F 93% 30.04 in 7.0 mi Calm Calm - N/A   Partly Cloudy
12:35 AM 46.4 °F - 44.6 °F 93% 30.04 in 5.0 mi Calm Calm - N/A   Clear
12:55 AM 46.4 °F 45.2 °F 42.8 °F 87% 30.03 in 6.0 mi NE 3.5 mph - N/A   Clear
1:15 AM 46.4 °F - 42.8 °F 87% 30.02 in 6.0 mi Calm Calm - N/A   Clear
1:35 AM 44.6 °F - 42.8 °F 93% 30.02 in 6.0 mi Calm Calm - N/A   Mist
1:55 AM 44.6 °F - 42.8 °F 93% 30.01 in 5.0 mi Calm Calm - N/A   Mist
2:15 AM 44.6 °F - 41.0 °F 87% 30.00 in 6.0 mi Calm Calm - N/A   Mist
2:35 AM 44.6 °F - 41.0 °F 87% 30.00 in 6.0 mi Calm Calm - N/A   Mist
2:55 AM 44.6 °F - 41.0 °F 87% 29.99 in 5.0 mi Calm Calm - N/A   Mist
3:15 AM 44.6 °F 43.1 °F 41.0 °F 87% 29.99 in 6.0 mi NE 3.5 mph - N/A   Mist
3:35 AM 44.6 °F - 41.0 °F 87% 29.98 in 6.0 mi Calm Calm - N/A   Mist
3:55 AM 44.6 °F - 42.8 °F 93% 29.97 in 5.0 mi Calm Calm - N/A   Mist
4:15 AM 42.8 °F - 41.0 °F 93% 29.97 in 5.0 mi Calm Calm - N/A   Mist
4:35 AM 44.6 °F - 41.0 °F 87% 29.97 in 5.0 mi Calm Calm - N/A   Scattered Clouds
4:55 AM 44.6 °F 43.1 °F 41.0 °F 87% 29.97 in 5.0 mi ENE 3.5 mph - N/A   Partly Cloudy
5:15 AM 44.6 °F - 41.0 °F 87% 29.97 in 4.0 mi Calm Calm - N/A   Scattered Clouds
5:35 AM 42.8 °F - 41.0 °F 93% 29.97 in 5.0 mi Calm Calm - N/A   Mist
5:55 AM 41.0 °F - 39.2 °F 93% 29.97 in 4.0 mi Calm Calm - N/A   Mist
6:15 AM 42.8 °F - 41.0 °F 93% 29.97 in 3.0 mi Calm Calm - N/A   Mostly Cloudy
6:35 AM 42.8 °F - 41.0 °F 93% 29.97 in 3.0 mi Calm Calm - N/A   Scattered Clouds
6:55 AM 44.6 °F - 42.8 °F 93% 29.97 in 4.0 mi Calm Calm - N/A   Partly Cloudy
7:15 AM 48.2 °F - 46.4 °F 93% 29.97 in 4.0 mi Calm Calm - N/A   Clear
7:35 AM 50.0 °F - 48.2 °F 94% 29.96 in 4.0 mi Calm Calm - N/A   Clear
7:55 AM 53.6 °F - 50.0 °F 88% 29.96 in 3.0 mi Calm Calm - N/A   Clear
8:15 AM 55.4 °F - 50.0 °F 82% 29.96 in 4.0 mi NW 4.6 mph - N/A   Clear
8:35 AM 55.4 °F - 50.0 °F 82% 29.96 in 4.0 mi NW 6.9 mph - N/A   Haze
8:55 AM 57.2 °F - 50.0 °F 77% 29.97 in 4.0 mi NW 9.2 mph - N/A   Haze
9:15 AM 57.2 °F - 50.0 °F 77% 29.97 in 4.0 mi NNW 8.1 mph - N/A   Haze
9:35 AM 57.2 °F - 50.0 °F 77% 29.97 in 5.0 mi NNW 9.2 mph - N/A   Haze
9:55 AM 57.2 °F - 50.0 °F 77% 29.97 in 4.0 mi NW 11.5 mph - N/A   Haze
10:15 AM 57.2 °F - 50.0 °F 77% 29.96 in 5.0 mi NW 12.7 mph - N/A   Haze
10:35 AM 59.0 °F - 50.0 °F 72% 29.97 in 5.0 mi NNW 12.7 mph - N/A   Haze
10:55 AM 57.2 °F - 50.0 °F 77% 29.97 in 5.0 mi NNW 13.8 mph - N/A   Haze
11:15 AM 57.2 °F - 50.0 °F 77% 29.97 in 5.0 mi NW 15.0 mph - N/A   Haze
11:35 AM 57.2 °F - 50.0 °F 77% 29.97 in 5.0 mi NNW 12.7 mph - N/A   Haze
11:55 AM 59.0 °F - 50.0 °F 72% 29.97 in 5.0 mi NW 13.8 mph - N/A   Haze
12:15 PM 59.0 °F - 50.0 °F 72% 29.97 in 5.0 mi NW 12.7 mph - N/A   Haze
12:35 PM 59.0 °F - 50.0 °F 72% 29.97 in 5.0 mi NW 13.8 mph - N/A   Haze
12:55 PM 59.0 °F - 50.0 °F 72% 29.97 in 5.0 mi NW 15.0 mph - N/A   Haze
1:15 PM 59.0 °F - 50.0 °F 72% 29.96 in 5.0 mi NW 16.1 mph - N/A   Haze
1:35 PM 59.0 °F - 50.0 °F 72% 29.96 in 5.0 mi NW 15.0 mph - N/A   Haze
1:55 PM 59.0 °F - 50.0 °F 72% 29.96 in 5.0 mi NW 16.1 mph - N/A   Haze
2:15 PM 59.0 °F - 50.0 °F 72% 29.95 in 5.0 mi NNW 16.1 mph - N/A   Haze
2:35 PM 59.0 °F - 50.0 °F 72% 29.95 in 5.0 mi NNW 17.3 mph - N/A   Haze
2:55 PM 57.2 °F - 50.0 °F 77% 29.95 in 5.0 mi NNW 18.4 mph - N/A   Haze
3:15 PM 57.2 °F - 50.0 °F 77% 29.95 in 5.0 mi NNW 17.3 mph 23.0 mph N/A   Haze
3:35 PM 59.0 °F - 50.0 °F 72% 29.94 in 5.0 mi NNW 19.6 mph - N/A   Haze
3:55 PM 57.2 °F - 50.0 °F 77% 29.94 in 5.0 mi NNW 18.4 mph - N/A   Haze
4:15 PM 57.2 °F - 50.0 °F 77% 29.93 in 5.0 mi NW 18.4 mph - N/A   Haze
4:35 PM 57.2 °F - 50.0 °F 77% 29.93 in 5.0 mi NW 16.1 mph - N/A   Haze
4:55 PM 57.2 °F - 50.0 °F 77% 29.93 in 5.0 mi NW 16.1 mph - N/A   Haze
5:15 PM 57.2 °F - 50.0 °F 77% 29.92 in 5.0 mi NNW 15.0 mph - N/A   Haze
5:35 PM 57.2 °F - 50.0 °F 77% 29.92 in 4.0 mi NNW 15.0 mph - N/A   Haze
5:55 PM 55.4 °F - 50.0 °F 82% 29.92 in 4.0 mi NNW 13.8 mph - N/A   Haze
6:15 PM 55.4 °F - 50.0 °F 82% 29.92 in 5.0 mi NNW 13.8 mph - N/A   Haze
6:35 PM 55.4 °F - 50.0 °F 82% 29.92 in 5.0 mi NNW 12.7 mph - N/A   Haze
6:55 PM 55.4 °F - 50.0 °F 82% 29.92 in 4.0 mi NNW 11.5 mph - N/A   Haze
7:15 PM 55.4 °F - 50.0 °F 82% 29.92 in 5.0 mi NNW 11.5 mph - N/A   Haze
7:35 PM 53.6 °F - 48.2 °F 82% 29.92 in 4.0 mi NNW 9.2 mph - N/A   Haze
7:55 PM 53.6 °F - 48.2 °F 82% 29.92 in 4.0 mi NNW 9.2 mph - N/A   Haze
8:15 PM 53.6 °F - 48.2 °F 82% 29.92 in 4.0 mi NNW 8.1 mph - N/A   Haze
8:35 PM 53.6 °F - 48.2 °F 82% 29.92 in 4.0 mi NNW 6.9 mph - N/A   Mist
8:55 PM 53.6 °F - 48.2 °F 82% 29.92 in 5.0 mi NNW 8.1 mph - N/A   Mist
9:15 PM 53.6 °F - 48.2 °F 82% 29.92 in 5.0 mi NNW 6.9 mph - N/A   Mist
9:35 PM 53.6 °F - 48.2 °F 82% 29.92 in 5.0 mi NW 5.8 mph - N/A   Mist
9:55 PM 53.6 °F - 48.2 °F 82% 29.92 in 5.0 mi NNW 6.9 mph - N/A   Mist
10:15 PM 53.6 °F - 48.2 °F 82% 29.92 in 5.0 mi North 5.8 mph - N/A   Mist
10:35 PM 53.6 °F - 50.0 °F 88% 29.92 in 5.0 mi NNE 3.5 mph - N/A   Mist
10:55 PM 53.6 °F - 48.2 °F 82% 29.92 in 5.0 mi North 6.9 mph - N/A   Mist
11:15 PM 53.6 °F - 50.0 °F 88% 29.92 in 5.0 mi NNW 3.5 mph - N/A   Mist
11:35 PM 53.6 °F - 48.2 °F 82% 29.91 in 5.0 mi North 4.6 mph - N/A   Mist
11:55 PM 53.6 °F - 48.2 °F 82% 29.91 in 5.0 mi NW 3.5 mph - N/A   Mist